Date String (YYYY-MM-DD hh:mm:ss) UTC,Instrument flags,Ambient pressure (hPa),Sample flow (lpm),Bypass flow (lpm),Sample temperature (°C),Ambient temperature (°C),ASC tube jacket temperature (°C),LED temperature (°C),Box temperature (°C),Sample RH (%),Span deviation,Mass concentration (μg/m³),Mass concentration (μg/m³),Mass concentration (μg/m³)
DateTimeUTC,F1_M11,P_M11,Q1_M11,Q2_M11,T1_M11,T2_M11,T3_M11,T4_M11,T5_M11,U1_M11,ZSPAN_M11,X0_M11,X2_M11,X1_M11
2022-06-14 23:00:00,,0818.9,5.00,0.00,29.5,27.5,00.0,38.4,31.3,14.9,0000.0,0016.70,0005.80,0002.41
2022-06-14 23:01:00,,0818.9,5.00,0.00,29.5,27.6,00.0,38.4,31.3,14.8,0000.0,0016.70,0005.82,0002.38
2022-06-14 23:02:00,,0818.9,5.00,0.00,29.5,27.8,00.0,38.4,31.3,14.6,0000.0,0016.89,0005.77,0002.32
2022-06-14 23:03:00,,0818.9,5.00,0.00,29.5,28.0,00.0,38.4,31.4,14.5,0000.0,0016.40,0005.72,0002.28
2022-06-14 23:04:00,,0818.9,5.00,0.00,29.5,28.1,00.0,38.4,31.4,14.5,0000.0,0016.27,0005.61,0002.25
2022-06-14 23:05:00,,0818.9,5.01,0.00,29.6,28.3,00.0,38.4,31.5,14.4,0000.0,0015.84,0005.58,0002.22
2022-06-14 23:06:00,,0818.9,5.00,0.00,29.6,28.5,00.0,38.4,31.6,14.3,0000.0,0015.38,0005.45,0002.18
2022-06-14 23:07:00,,0818.9,5.00,0.00,29.6,28.6,00.0,38.4,31.6,14.4,0000.0,0015.50,0005.36,0002.16
2022-06-14 23:08:00,,0818.8,5.00,0.00,29.7,28.7,00.0,38.4,31.7,14.4,0000.0,0015.09,0005.24,0002.12
2022-06-14 23:09:00,,0818.9,5.00,0.00,29.7,28.8,00.0,38.5,31.7,14.4,0000.0,0014.99,0005.14,0002.11
2022-06-14 23:10:00,,0818.9,5.00,0.00,29.7,28.9,00.0,38.5,31.8,14.3,0000.0,0014.97,0005.13,0002.09
2022-06-14 23:11:00,,0819.0,5.01,0.00,29.8,29.0,00.0,38.5,31.8,14.1,0000.0,0014.86,0005.15,0002.07
2022-06-14 23:12:00,,0818.9,5.00,0.00,29.8,28.8,00.0,38.5,31.7,14.0,0000.0,0015.19,0005.14,0002.06
2022-06-14 23:13:00,,0818.9,5.00,0.00,29.7,27.9,00.0,38.5,31.4,14.0,0000.0,0015.11,0005.10,0002.04
2022-06-14 23:14:00,,0818.9,4.99,0.00,29.7,27.3,00.0,38.4,31.3,14.1,0000.0,0014.92,0005.08,0002.05
2022-06-14 23:15:00,,0818.9,5.01,0.00,29.6,27.3,00.0,38.4,31.2,14.1,0000.0,0015.27,0005.05,0002.06
2022-06-14 23:16:00,,0819.0,4.99,0.00,29.5,27.4,00.0,38.4,31.3,14.2,0000.0,0015.20,0005.02,0002.06
2022-06-14 23:17:00,,0819.0,5.00,0.00,29.5,27.6,00.0,38.4,31.3,14.3,0000.0,0014.67,0005.02,0002.04
2022-06-14 23:18:00,,0819.0,5.00,0.00,29.5,27.8,00.0,38.4,31.4,14.4,0000.0,0014.22,0004.97,0002.01
2022-06-14 23:19:00,,0819.0,5.02,0.00,29.5,27.9,00.0,38.4,31.4,14.4,0000.0,0014.40,0005.02,0002.00
2022-06-14 23:20:00,,0818.9,5.00,0.00,29.5,28.1,00.0,38.4,31.4,14.6,0000.0,0015.20,0005.04,0001.98
2022-06-14 23:21:00,,0818.9,4.99,0.00,29.6,28.3,00.0,38.4,31.5,14.8,0000.0,0015.12,0005.01,0001.99
2022-06-14 23:22:00,,0818.8,5.01,0.00,29.6,28.4,00.0,38.4,31.6,14.9,0000.0,0015.07,0004.93,0002.00
2022-06-14 23:23:00,,0818.9,5.01,0.00,29.6,28.6,00.0,38.4,31.6,15.1,0000.0,0015.53,0004.89,0001.99
2022-06-14 23:24:00,,0818.9,5.00,0.00,29.7,28.7,00.0,38.5,31.7,15.3,0000.0,0015.34,0004.91,0002.02
2022-06-14 23:25:00,,0818.8,4.99,0.00,29.7,28.8,00.0,38.5,31.7,15.2,0000.0,0015.91,0004.93,0002.04
2022-06-14 23:26:00,,0818.8,4.99,0.00,29.8,29.0,00.0,38.5,31.8,15.0,0000.0,0016.35,0005.01,0002.04
2022-06-14 23:27:00,,0818.8,5.00,0.00,29.8,29.0,00.0,38.5,31.8,14.9,0000.0,0016.35,0005.09,0002.06
2022-06-14 23:28:00,,0818.9,5.00,0.00,29.8,28.3,00.0,38.5,31.6,14.6,0000.0,0016.69,0005.15,0002.10
2022-06-14 23:29:00,,0818.8,5.00,0.00,29.7,27.5,00.0,38.4,31.3,14.5,0000.0,0017.75,0005.26,0002.12
2022-06-14 23:30:00,,0818.9,5.01,0.00,29.6,27.3,00.0,38.4,31.3,14.5,0000.0,0018.53,0005.28,0002.13
2022-06-14 23:31:00,,0818.9,4.99,0.00,29.5,27.3,00.0,38.4,31.2,14.6,0000.0,0017.63,0005.25,0002.14
2022-06-14 23:32:00,,0819.0,4.99,0.00,29.5,27.4,00.0,38.4,31.3,14.8,0000.0,0017.58,0005.26,0002.15
2022-06-14 23:33:00,,0819.0,5.01,0.00,29.5,27.6,00.0,38.4,31.3,14.8,0000.0,0018.02,0005.27,0002.14
2022-06-14 23:34:00,,0818.9,5.00,0.00,29.5,27.8,00.0,38.4,31.3,14.8,0000.0,0017.49,0005.37,0002.17
2022-06-14 23:35:00,,0818.9,5.01,0.00,29.5,28.0,00.0,38.4,31.4,14.8,0000.0,0017.56,0005.36,0002.18
2022-06-14 23:36:00,,0819.0,5.00,0.00,29.5,28.2,00.0,38.4,31.4,14.7,0000.0,0017.81,0005.36,0002.16
2022-06-14 23:37:00,,0819.0,4.99,0.00,29.6,28.4,00.0,38.4,31.5,14.7,0000.0,0016.89,0005.30,0002.16
2022-06-14 23:38:00,,0819.0,4.99,0.00,29.6,28.5,00.0,38.4,31.6,14.7,0000.0,0016.58,0005.26,0002.18
2022-06-14 23:39:00,,0818.9,5.00,0.00,29.6,28.6,00.0,38.4,31.6,14.7,0000.0,0016.27,0005.24,0002.18
2022-06-14 23:40:00,,0819.0,5.00,0.00,29.7,28.8,00.0,38.4,31.7,14.6,0000.0,0015.54,0005.24,0002.18
2022-06-14 23:41:00,,0819.0,5.00,0.00,29.7,28.9,00.0,38.5,31.7,14.4,0000.0,0014.97,0005.24,0002.19
2022-06-14 23:42:00,,0818.9,5.01,0.00,29.7,28.6,00.0,38.4,31.6,14.4,0000.0,0015.95,0005.37,0002.19
2022-06-14 23:43:00,,0818.9,5.00,0.00,29.6,27.7,00.0,38.4,31.3,14.6,0000.0,0015.89,0005.47,0002.18
2022-06-14 23:44:00,,0818.9,5.00,0.00,29.6,27.3,00.0,38.3,31.2,14.6,0000.0,0015.47,0005.48,0002.19
2022-06-14 23:45:00,,0819.0,5.01,0.00,29.5,27.3,00.0,38.3,31.2,14.7,0000.0,0015.53,0005.47,0002.18
2022-06-14 23:46:00,,0818.9,4.98,0.00,29.5,27.4,00.0,38.3,31.2,14.9,0000.0,0015.80,0005.46,0002.17
2022-06-14 23:47:00,,0819.0,5.02,0.00,29.4,27.5,00.0,38.3,31.3,15.1,0000.0,0015.05,0005.43,0002.18
2022-06-14 23:48:00,,0819.0,4.98,0.00,29.4,27.7,00.0,38.3,31.3,15.6,0000.0,0014.99,0005.41,0002.17
2022-06-14 23:49:00,,0818.9,5.00,0.00,29.4,27.9,00.0,38.3,31.3,16.0,0000.0,0015.16,0005.47,0002.17
2022-06-14 23:50:00,,0818.9,5.01,0.00,29.5,28.1,00.0,38.3,31.4,16.3,0000.0,0015.64,0005.57,0002.19
2022-06-14 23:51:00,,0818.9,5.00,0.00,29.5,28.2,00.0,38.3,31.4,16.6,0000.0,0016.14,0005.59,0002.22
2022-06-14 23:52:00,,0818.9,5.00,0.00,29.5,28.4,00.0,38.3,31.5,16.7,0000.0,0016.78,0005.71,0002.25
2022-06-14 23:53:00,,0818.9,5.01,0.00,29.6,28.5,00.0,38.4,31.6,16.8,0000.0,0016.51,0005.73,0002.30
2022-06-14 23:54:00,,0818.9,4.99,0.00,29.6,28.6,00.0,38.4,31.6,16.8,0000.0,0016.40,0005.74,0002.36
2022-06-14 23:55:00,,0818.9,5.00,0.00,29.6,28.8,00.0,38.4,31.7,16.6,0000.0,0016.83,0005.86,0002.41
2022-06-14 23:56:00,,0818.8,4.99,0.00,29.7,28.9,00.0,38.4,31.7,16.5,0000.0,0017.75,0005.94,0002.45
2022-06-14 23:57:00,,0818.8,5.01,0.00,29.7,28.8,00.0,38.4,31.7,16.5,0000.0,0018.11,0006.12,0002.49
2022-06-14 23:58:00,,0818.8,5.00,0.00,29.7,28.0,00.0,38.4,31.5,16.8,0000.0,0018.24,0006.24,0002.55
2022-06-14 23:59:00,,0818.8,5.00,0.00,29.6,27.3,00.0,38.3,31.3,17.1,0000.0,0018.67,0006.40,0002.60
